{"data":{"norad_id":65584,"epoch":"2026-09-19T19:21:01.245024Z","epoch_age_seconds":74287,"freshness":"FRESH","line1":"1 65584U 25203V   26262.80626441  .00000054  00000+0  38192-4 0  9994","line2":"2 65584  81.2987 283.1500 0006302 292.4575  67.5914 13.83809580 51787","mean_motion":13.8380958,"eccentricity":0.0006302,"inclination_deg":81.2987,"raan_deg":283.15,"arg_perigee_deg":292.4575,"mean_anomaly_deg":67.5914,"bstar":3.8192e-5,"rev_number":5178,"period_min":104.06056012418,"perigee_km":945.78719822923,"apogee_km":955.02409338,"semimajor_km":7328.5426458046,"source":"CELESTRAK","updated_at":"2026-09-20T09:00:47.718852Z"}}